Wind_Speed
53 51 48 49 53 56 60 63 63 67 70 68 67 68 64 61 55 52 40 29 31 38 46 57 73 80 86 92 96 95 95 93 93 92 90 91 93 93 92 90 87 85 83 81 77 74 64 61 64 67 66 62 59 60
51 48 48 52 56 59 62 63 66 70 73 67 67 68 64 60 56 53 34 28 28 34 40 48 63 77 89 93 93 95 93 93 89 90 88 89 92 91 91 91 90 88 85 81 79 73 68 66 63 66 69 67 65 64
50 49 51 55 60 63 63 66 69 72 71 66 64 67 63 60 54 51 33 26 26 30 36 46 60 75 89 89 90 92 92 92 89 86 87 89 90 89 89 89 89 90 88 87 83 78 73 71 70 68 70 73 73 72
51 52 56 59 61 62 66 68 70 73 67 63 64 65 60 59 53 50 32 25 25 24 34 45 56 70 79 86 88 90 91 92 90 85 86 87 86 87 87 86 86 86 86 84 83 78 75 74 74 73 72 73 74 75
54 57 59 61 63 67 67 68 72 72 63 62 65 63 58 58 52 47 31 23 22 24 31 42 55 70 80 78 84 88 88 89 88 85 82 83 84 84 84 83 84 83 82 82 81 79 76 75 75 75 74 74 74 77
57 59 63 64 66 63 67 71 72 69 64 61 62 61 58 56 49 46 29 22 21 24 32 41 52 63 65 72 80 83 85 85 85 83 79 77 78 79 80 81 81 81 80 80 80 79 77 76 75 75 76 76 77 79
60 60 63 64 63 65 70 71 73 65 63 62 60 60 60 54 49 43 27 21 23 26 34 42 50 60 69 70 72 76 76 77 75 76 76 74 74 74 74 75 77 79 79 79 78 79 78 77 77 76 77 79 79 81
58 61 65 65 66 69 70 74 71 65 61 59 60 61 60 54 49 42 24 20 25 29 35 41 44 51 56 58 61 64 65 66 65 68 73 75 73 71 68 70 72 74 75 75 74 73 73 74 74 74 75 77 77 77
64 66 68 68 71 70 73 75 69 64 61 59 61 63 58 56 50 36 22 22 26 29 36 39 45 47 48 49 50 52 56 57 58 57 57 61 65 66 67 69 70 70 70 71 72 72 72 71 71 72 73 75 76 77
65 69 72 71 74 71 73 69 66 62 61 62 65 62 59 56 40 24 20 26 31 33 37 39 39 42 41 41 45 47 49 50 49 46 44 46 48 50 54 59 63 67 69 71 70 70 71 71 72 72 72 74 77 79
67 70 72 73 75 70 71 69 63 62 64 66 64 59 54 40 26 21 23 30 33 35 35 38 39 43 43 44 44 43 42 41 42 42 40 40 40 39 39 40 41 43 46 49 51 54 55 54 54 55 55 58 60 61
72 73 75 75 75 72 71 67 62 65 68 65 62 50 36 26 20 22 27 29 28 32 41 37 35 39 37 36 35 37 40 40 40 38 38 38 37 34 34 35 37 39 40 41 43 47 49 51 52 52 54 56 57 58
71 73 75 80 76 72 71 65 65 68 64 61 44 33 25 18 21 27 33 31 33 43 40 40 38 34 33 34 36 39 39 38 38 37 36 34 33 36 40 42 43 44 45 47 48 49 49 48 47 47 46 45 42 42
74 75 79 82 73 70 67 65 67 64 59 43 31 23 16 17 24 31 38 36 36 42 47 43 38 33 34 35 36 37 37 37 34 31 32 34 35 35 36 38 39 41 41 42 41 40 42 40 23 17 20 26 26 20
73 77 78 81 71 68 66 66 64 57 43 32 22 16 14 19 27 33 40 38 43 46 45 41 35 36 36 36 36 36 34 31 27 29 29 31 32 33 34 36 37 35 34 26 21 21 16 14 14 14 12 14 13 13
77 76 80 77 68 66 65 65 57 43 32 23 16 12 15 22 28 34 40 40 43 46 42 40 39 36 34 32 32 30 26 21 23 26 26 27 31 32 31 30 20 16 13 17 25 21 14 11 9 10 12 12 15 17
74 77 80 68 65 64 65 59 51 36 25 17 11 13 20 27 31 36 44 42 42 41 41 37 36 38 34 32 29 23 19 22 23 24 26 27 27 19 18 22 22 17 18 19 25 30 21 12 14 14 16 18 20 23
72 75 68 63 61 63 63 59 43 29 19 11 10 17 25 32 37 44 48 45 41 39 36 34 32 32 30 27 25 22 23 21 21 22 22 14 14 22 26 25 19 17 16 17 21 22 25 18 15 18 20 22 26 29
69 70 61 58 58 61 61 55 36 23 13 9 14 22 33 37 43 49 45 42 39 37 36 35 34 32 27 23 21 22 21 21 18 20 19 16 18 17 19 22 18 20 23 22 19 18 20 20 24 28 29 30 31 31
66 59 55 54 58 57 59 45 28 17 9 13 21 32 38 40 48 47 44 42 39 37 34 32 30 27 27 22 19 18 19 18 22 22 19 20 17 16 17 22 20 15 13 16 17 18 23 25 28 30 31 32 33 35
54 51 50 53 54 58 50 35 21 11 11 18 28 39 41 42 48 49 45 43 41 37 32 30 29 25 23 19 16 20 18 22 24 18 21 21 17 19 20 17 15 14 19 25 27 26 28 29 28 31 35 38 40 40
46 45 48 50 55 52 39 28 16 9 13 21 33 43 44 45 45 44 41 41 38 34 33 30 26 21 19 18 19 16 22 24 19 19 19 21 14 15 19 13 12 17 20 21 22 24 27 31 35 37 41 44 47 49
40 43 45 52 52 40 30 21 12 10 15 24 36 47 48 46 47 45 41 40 37 33 29 25 20 17 19 16 11 20 22 25 23 19 16 22 15 13 14 10 15 17 18 21 25 29 33 36 42 45 49 49 44 40
38 41 50 46 40 31 23 15 11 12 18 27 42 49 51 50 50 45 40 38 36 33 31 26 16 17 16 10 12 19 24 20 18 19 19 17 15 17 11 16 18 18 21 26 31 35 38 41 47 47 42 32 21 16
39 44 39 38 31 23 17 11 11 15 22 33 44 51 50 54 50 47 42 37 34 35 31 21 18 18 18 14 16 15 14 14 16 13 11 14 12 13 14 17 19 22 26 30 35 37 40 46 40 35 22 14 8 6
34 33 36 30 23 17 12 12 14 21 30 38 44 49 49 50 46 45 41 38 33 27 23 22 23 20 18 14 14 17 16 15 16 12 8 9 11 15 20 19 21 24 28 33 36 38 42 35 27 16 13 6 8 11
27 34 32 22 17 12 10 15 19 27 38 44 46 49 49 47 45 43 41 37 30 25 23 26 25 23 20 18 16 19 22 20 15 12 8 10 15 16 14 18 21 24 29 32 35 38 31 24 13 10 9 3 7 4
30 31 21 15 11 7 13 18 24 33 44 47 51 51 49 47 45 43 41 32 25 20 27 29 27 25 20 16 15 17 18 14 13 11 11 11 12 13 16 20 21 23 25 28 33 32 24 18 10 6 9 9 6 13
29 18 12 8 4 8 16 20 29 38 48 52 54 54 51 49 47 42 36 33 31 20 26 31 27 24 21 18 15 14 12 11 10 10 11 12 12 16 17 16 20 20 22 25 28 29 22 18 11 5 7 12 14 18
19 11 6 1 5 10 17 23 34 43 50 55 57 55 51 47 45 40 33 29 29 21 27 32 27 25 23 19 15 12 13 12 13 12 11 13 15 16 15 16 18 19 19 22 25 25 26 22 18 16 14 14 13 15
13 7 2 3 7 11 15 23 34 41 48 53 55 52 47 45 41 40 34 29 22 21 33 31 26 23 21 18 15 16 15 14 13 12 14 15 16 17 17 18 16 17 17 22 24 23 25 23 20 21 24 24 26 27
6 3 3 5 7 10 14 23 35 43 46 49 50 48 47 46 41 37 33 25 25 30 30 27 25 22 20 17 17 18 17 15 13 15 17 16 17 17 20 20 19 19 19 20 22 22 24 26 28 27 28 34 33 37
7 6 5 5 7 11 13 21 32 40 45 47 47 46 44 41 38 35 29 29 31 30 28 26 23 21 20 19 18 16 15 15 15 16 17 20 19 19 20 19 19 21 24 25 26 27 28 31 31 31 35 40 44 44
Wind_Direction
311 310 308 310 311 316 319 321 324 327 327 328 329 334 332 328 322 318 308 281 257 242 227 222 218 217 217 221 224 228 230 230 228 228 227 229 231 233 236 239 242 244 245 248 251 254 255 258 261 264 265 265 265 265
310 309 309 312 314 316 321 320 322 323 326 327 328 333 332 330 326 324 310 283 255 237 226 220 213 211 213 218 221 224 227 229 228 228 228 228 230 231 234 236 239 240 244 246 249 251 252 253 254 261 266 267 265 263
307 307 310 311 314 317 318 320 321 324 324 326 327 331 332 332 328 326 312 287 261 239 222 214 208 205 210 215 220 222 224 227 227 225 227 229 230 233 234 236 240 243 244 246 247 249 249 249 251 252 258 262 264 264
308 309 311 314 315 316 318 321 322 324 324 325 326 330 333 332 329 328 313 288 260 233 219 209 203 202 210 214 218 222 223 226 227 226 225 229 232 233 234 237 240 242 245 248 251 252 253 254 255 257 258 261 265 268
310 311 313 315 316 317 319 321 323 323 323 324 325 328 330 331 328 327 311 288 256 227 215 203 197 198 209 214 217 222 225 226 228 229 227 228 231 235 237 238 240 243 246 249 252 253 254 255 257 258 259 261 264 268
315 315 315 316 317 317 318 322 323 323 322 322 325 326 328 328 328 328 310 280 246 217 204 197 198 198 202 215 216 220 224 228 230 230 230 230 232 235 238 240 243 246 247 249 252 254 254 254 255 257 260 262 263 265
316 320 318 317 316 317 321 322 323 320 320 320 323 324 326 325 325 324 304 275 240 208 200 198 200 201 207 215 218 221 226 230 232 234 235 237 237 237 239 243 246 248 250 251 252 254 256 258 259 261 262 262 264 267
318 320 322 318 314 318 318 322 322 320 318 319 320 323 322 320 320 319 295 256 229 209 203 197 198 206 211 215 218 221 225 230 233 234 236 237 238 239 241 244 246 249 252 254 257 258 259 261 263 265 266 268 270 270
317 317 318 317 318 318 318 321 320 319 318 319 319 320 317 314 313 307 277 237 218 202 193 197 196 201 211 214 218 221 224 228 231 234 236 238 240 242 242 244 246 248 252 254 256 258 258 259 260 262 264 265 267 270
311 315 317 315 318 319 320 319 318 317 317 317 317 313 309 309 304 283 244 218 204 193 187 189 192 193 198 206 210 214 219 223 226 228 230 234 237 238 241 244 246 248 249 253 256 260 263 265 265 265 265 267 268 268
312 314 317 318 319 320 320 320 317 317 316 316 313 308 308 300 281 252 222 212 212 207 198 192 194 198 198 198 204 208 213 216 220 223 226 230 232 235 239 244 247 249 251 252 254 255 256 259 260 261 262 264 269 274
309 313 316 320 321 321 321 318 317 317 317 314 308 307 298 281 252 222 211 209 203 191 187 182 194 198 196 199 202 206 212 215 220 224 225 229 233 235 239 244 247 249 250 252 253 256 258 259 262 265 268 271 273 275
312 314 317 321 320 320 321 318 319 320 314 312 311 302 284 256 223 205 201 198 188 187 188 188 187 185 186 195 201 207 212 217 220 223 227 232 236 238 238 241 246 250 253 256 260 263 265 268 269 272 273 273 276 277
310 312 319 321 319 321 320 320 323 321 315 314 307 292 268 231 206 197 193 191 187 183 183 184 190 190 189 196 202 207 211 216 222 227 231 233 237 244 248 249 252 255 258 261 263 267 266 265 251 242 257 275 265 260
309 313 319 322 320 321 321 324 325 321 317 311 299 276 243 213 198 188 187 186 182 182 183 183 184 193 198 201 205 209 214 216 218 226 234 239 241 246 252 257 262 265 262 253 220 219 215 216 216 226 245 268 284 295
309 312 318 320 320 320 324 327 329 323 316 308 289 249 217 202 190 181 182 180 184 182 180 185 193 193 194 199 204 207 206 207 218 225 231 238 244 251 259 264 247 215 205 189 190 202 197 213 224 242 258 271 283 289
307 314 319 318 319 321 326 330 332 324 316 305 268 215 199 189 180 176 170 171 172 176 181 185 192 191 196 203 204 200 209 216 221 227 236 244 254 241 195 188 191 208 217 211 210 218 235 276 280 281 278 282 286 290
309 314 316 317 318 322 327 331 332 323 315 289 235 198 187 176 172 166 163 167 170 175 182 188 190 191 198 205 201 207 213 221 233 247 248 214 186 180 182 187 191 213 234 246 247 246 241 260 274 286 290 291 290 291
308 314 314 315 318 323 329 331 329 318 300 242 197 182 174 172 170 165 167 170 170 175 181 187 191 196 196 200 199 211 225 234 236 220 202 187 187 205 202 200 201 223 233 245 261 284 293 294 293 296 295 293 293 295
310 310 311 314 319 323 330 327 324 313 272 203 181 174 173 172 170 168 173 172 174 179 184 192 189 189 189 195 212 235 221 223 200 197 189 184 198 201 199 205 223 231 255 268 275 288 292 290 291 292 292 294 294 295
306 307 309 314 318 324 326 323 316 298 236 192 177 174 172 170 169 174 177 180 179 178 180 182 181 181 192 207 225 212 218 197 202 193 182 186 199 205 214 220 239 277 289 287 289 287 285 290 298 301 300 298 295 292
302 304 309 314 318 321 320 318 303 267 220 191 179 175 172 168 169 174 180 177 172 172 177 181 184 191 200 202 200 203 190 193 196 185 189 195 210 227 208 224 286 297 297 302 302 305 307 303 299 299 300 299 297 295
300 305 309 312 315 317 315 309 282 242 206 189 181 175 173 170 170 167 172 173 177 182 189 194 191 201 194 193 206 193 189 199 193 194 193 196 206 219 230 271 299 310 309 302 302 304 306 309 312 310 308 307 306 301
302 307 309 310 312 311 305 289 253 222 198 186 180 177 175 172 169 171 178 182 186 190 188 185 190 184 177 180 188 187 192 199 196 201 208 208 223 212 273 315 310 300 298 303 310 316 316 314 315 316 315 317 319 315
306 307 308 309 308 303 294 259 226 202 187 179 178 177 175 172 173 175 178 181 182 180 183 185 192 178 171 178 184 181 178 195 199 209 213 223 234 261 287 298 302 302 304 309 314 316 319 319 319 317 328 355 351 66
305 308 309 307 300 293 271 222 202 190 183 177 175 178 177 174 175 179 183 185 185 181 189 191 186 176 176 183 184 179 177 190 206 215 232 251 255 283 293 298 299 303 311 316 320 322 323 324 324 332 360 24 90 97
309 314 311 302 294 280 231 198 187 183 180 176 174 174 173 175 178 182 185 185 186 184 190 182 182 183 181 174 176 181 183 188 202 208 222 264 287 289 294 304 310 316 318 322 325 330 333 334 332 350 5 260 215 246
315 315 306 299 291 245 195 185 180 177 177 174 173 174 176 179 180 180 176 171 173 178 180 181 182 178 174 182 190 193 192 196 213 238 252 257 267 285 300 307 317 320 321 328 332 342 344 349 348 336 343 352 283 287
320 313 307 299 251 183 178 178 177 176 174 174 175 177 180 180 178 174 177 184 192 188 181 178 179 175 180 185 188 191 195 206 222 228 233 249 274 290 298 311 318 314 320 323 339 358 360 14 14 320 300 308 309 308
333 328 319 277 168 171 173 175 176 178 177 176 179 181 181 178 178 178 181 186 189 193 184 174 173 178 182 183 179 188 199 208 217 224 243 273 282 288 299 306 309 314 319 328 341 358 6 7 4 8 5 352 333 312
341 346 26 113 141 155 167 173 179 180 180 181 183 184 182 180 180 185 189 189 194 190 174 173 179 184 187 191 200 208 214 221 232 251 266 273 288 292 290 299 301 309 315 327 336 349 350 352 351 353 352 343 337 333
359 42 103 136 151 159 166 173 178 180 182 184 185 184 185 186 187 190 189 189 180 171 173 180 186 191 197 204 208 219 228 238 250 262 276 276 280 282 294 298 298 301 310 320 325 332 335 331 331 330 332 332 328 327
65 80 105 125 147 163 168 176 179 181 182 185 186 186 187 188 187 186 190 182 174 177 181 185 191 198 203 210 218 228 241 255 266 276 276 273 270 283 297 297 300 303 303 305 311 313 319 325 327 322 319 323 321 325
Height
10770 10763 10757 10750 10742 10734 10724 10715 10705 10694 10683 10671 10659 10646 10632 10617 10604 10592 10582 10578 10578 10581 10590 10602 10618 10635 10652 10663 10676 10687 10701 10718 10740 10755 10772 10783 10794 10805 10815 10821 10827 10835 10839 10846 10854 10861 10876 10877 10874 10874 10877 10884 10890 10889
10758 10751 10745 10738 10730 10722 10712 10702 10692 10681 10671 10658 10646 10635 10621 10607 10594 10582 10573 10568 10569 10573 10581 10591 10603 10621 10638 10649 10662 10673 10688 10703 10725 10742 10756 10765 10773 10786 10797 10802 10811 10815 10822 10832 10837 10849 10859 10861 10866 10860 10856 10862 10867 10870
10746 10739 10733 10725 10717 10709 10700 10690 10679 10668 10657 10646 10635 10623 10612 10599 10586 10574 10566 10562 10563 10567 10571 10578 10588 10610 10625 10638 10651 10661 10676 10691 10708 10729 10738 10746 10755 10767 10779 10787 10796 10800 10807 10813 10823 10835 10841 10844 10846 10849 10844 10842 10843 10847
10734 10728 10721 10713 10705 10696 10687 10677 10667 10656 10644 10634 10624 10613 10602 10590 10578 10568 10560 10557 10557 10561 10565 10572 10586 10602 10620 10631 10642 10651 10665 10677 10693 10710 10722 10732 10742 10752 10764 10772 10779 10785 10793 10801 10808 10820 10826 10829 10831 10834 10836 10832 10829 10828
10723 10716 10708 10700 10692 10683 10673 10664 10654 10642 10631 10622 10612 10601 10593 10583 10572 10562 10555 10553 10554 10556 10561 10569 10581 10597 10605 10622 10634 10642 10654 10667 10680 10695 10710 10720 10728 10737 10748 10757 10764 10772 10780 10786 10792 10799 10808 10813 10817 10818 10819 10821 10819 10815
10711 10703 10695 10687 10678 10669 10660 10651 10641 10629 10618 10610 10602 10591 10583 10574 10566 10557 10551 10549 10551 10552 10557 10565 10576 10590 10605 10609 10625 10635 10643 10657 10671 10683 10697 10709 10719 10725 10732 10742 10750 10756 10764 10770 10775 10782 10788 10794 10799 10802 10803 10802 10801 10802
10699 10691 10682 10674 10665 10657 10648 10637 10627 10617 10606 10597 10589 10581 10573 10565 10557 10551 10545 10544 10546 10550 10555 10562 10573 10587 10597 10606 10618 10630 10642 10653 10665 10678 10689 10699 10707 10714 10723 10730 10735 10741 10747 10752 10758 10763 10768 10772 10776 10780 10782 10782 10783 10784
10686 10679 10670 10661 10652 10644 10634 10623 10613 10603 10594 10585 10577 10569 10561 10554 10548 10543 10539 10539 10542 10547 10553 10561 10574 10583 10592 10604 10615 10627 10637 10648 10658 10666 10674 10683 10693 10704 10715 10718 10723 10725 10729 10736 10742 10748 10752 10756 10760 10762 10762 10762 10762 10762
10673 10665 10657 10648 10640 10630 10619 10608 10598 10588 10580 10572 10564 10557 10549 10543 10538 10534 10531 10533 10538 10544 10551 10560 10569 10580 10591 10601 10611 10622 10630 10637 10645 10654 10665 10674 10683 10692 10700 10702 10706 10712 10716 10720 10723 10728 10733 10738 10741 10743 10744 10744 10743 10742
10660 10652 10644 10635 10626 10615 10605 10593 10583 10574 10566 10557 10549 10541 10534 10529 10526 10524 10524 10528 10534 10541 10550 10559 10566 10574 10585 10595 10603 10612 10621 10630 10639 10649 10657 10663 10670 10678 10683 10687 10693 10698 10703 10708 10713 10715 10716 10719 10720 10722 10725 10726 10723 10722
10647 10639 10630 10621 10611 10600 10589 10578 10568 10559 10551 10541 10531 10523 10517 10513 10512 10513 10517 10522 10529 10538 10548 10557 10564 10572 10580 10589 10597 10607 10616 10626 10634 10641 10649 10656 10662 10669 10674 10678 10682 10687 10690 10693 10696 10696 10698 10701 10702 10702 10704 10703 10703 10703
10631 10624 10616 10606 10595 10584 10573 10562 10553 10543 10533 10521 10512 10505 10502 10500 10501 10505 10510 10517 10526 10536 10546 10554 10563 10570 10581 10589 10598 10606 10612 10621 10628 10637 10644 10649 10657 10664 10668 10670 10672 10674 10677 10678 10681 10683 10685 10687 10689 10691 10691 10691 10690 10688
10617 10609 10600 10590 10579 10568 10558 10546 10537 10526 10513 10502 10494 10490 10490 10491 10493 10499 10505 10514 10523 10532 10543 10552 10560 10569 10578 10586 10593 10601 10609 10617 10624 10632 10639 10646 10652 10654 10656 10657 10661 10664 10666 10668 10670 10671 10672 10674 10676 10677 10678 10676 10674 10671
10603 10593 10585 10574 10563 10553 10542 10532 10521 10507 10495 10487 10483 10481 10481 10484 10488 10493 10501 10511 10520 10531 10541 10549 10559 10568 10575 10582 10590 10597 10604 10612 10622 10630 10633 10636 10640 10644 10647 10650 10652 10654 10656 10657 10659 10660 10661 10662 10663 10664 10665 10665 10662 10661
10588 10579 10570 10559 10548 10539 10528 10518 10506 10492 10483 10478 10475 10474 10476 10479 10483 10489 10498 10508 10519 10530 10539 10550 10559 10566 10572 10579 10586 10593 10601 10610 10618 10623 10627 10629 10633 10637 10639 10640 10642 10644 10644 10646 10649 10650 10654 10655 10657 10658 10657 10657 10655 10654
10574 10566 10556 10545 10535 10526 10516 10505 10492 10480 10475 10471 10470 10470 10473 10477 10482 10487 10497 10508 10518 10529 10541 10550 10555 10563 10571 10578 10584 10592 10601 10609 10613 10615 10619 10623 10625 10628 10631 10631 10633 10635 10637 10640 10644 10648 10650 10652 10652 10652 10652 10651 10650 10648
10560 10553 10544 10532 10523 10514 10505 10495 10484 10475 10470 10467 10467 10468 10471 10476 10482 10489 10500 10510 10521 10532 10540 10547 10554 10562 10569 10575 10584 10594 10601 10604 10607 10610 10613 10616 10619 10622 10623 10627 10631 10635 10638 10641 10643 10644 10644 10645 10646 10645 10645 10644 10643 10640
10549 10540 10530 10522 10513 10505 10495 10485 10476 10471 10467 10465 10465 10467 10471 10478 10485 10494 10504 10514 10523 10531 10541 10548 10556 10563 10570 10578 10587 10591 10595 10599 10603 10605 10608 10611 10614 10619 10623 10628 10632 10634 10635 10636 10638 10640 10641 10643 10641 10640 10638 10636 10634 10631
10537 10528 10520 10512 10505 10497 10488 10478 10472 10467 10464 10463 10464 10468 10473 10481 10489 10500 10509 10517 10525 10533 10541 10548 10555 10563 10571 10578 10583 10587 10592 10595 10598 10601 10605 10609 10614 10618 10622 10626 10629 10631 10632 10633 10634 10634 10633 10633 10633 10631 10629 10627 10625 10622
10525 10517 10510 10503 10497 10489 10481 10472 10467 10464 10462 10462 10464 10468 10475 10483 10493 10503 10512 10520 10527 10534 10541 10548 10556 10564 10570 10575 10580 10584 10587 10590 10594 10599 10603 10609 10614 10617 10621 10625 10627 10629 10630 10631 10630 10629 10628 10626 10625 10622 10620 10617 10614 10611
10513 10507 10501 10495 10489 10481 10473 10467 10463 10461 10461 10461 10464 10470 10478 10486 10496 10505 10512 10520 10527 10535 10543 10550 10557 10564 10570 10574 10578 10581 10584 10587 10592 10598 10602 10608 10612 10616 10621 10623 10625 10626 10626 10625 10625 10623 10621 10619 10615 10612 10608 10604 10601 10598
10502 10498 10492 10486 10480 10473 10467 10462 10460 10459 10459 10461 10465 10471 10480 10489 10498 10506 10514 10523 10532 10538 10544 10552 10559 10564 10569 10572 10577 10579 10583 10587 10593 10598 10602 10608 10612 10615 10619 10621 10621 10622 10621 10619 10616 10614 10612 10609 10606 10601 10596 10590 10585 10580
10493 10488 10483 10478 10471 10465 10461 10458 10456 10457 10458 10461 10466 10473 10482 10490 10500 10509 10518 10526 10533 10540 10546 10554 10561 10565 10568 10571 10574 10577 10583 10587 10593 10598 10602 10607 10611 10613 10616 10618 10618 10616 10615 10613 10611 10608 10604 10598 10593 10587 10580 10572 10565 10558
10483 10479 10474 10467 10462 10458 10455 10453 10453 10454 10457 10461 10467 10474 10484 10493 10503 10512 10521 10528 10535 10542 10549 10555 10560 10564 10568 10571 10574 10578 10583 10589 10594 10598 10602 10606 10608 10611 10612 10612 10612 10612 10609 10606 10602 10598 10593 10587 10581 10573 10566 10560 10554 10549
10474 10469 10463 10458 10454 10451 10449 10449 10450 10453 10457 10462 10469 10477 10486 10496 10505 10514 10522 10529 10536 10542 10548 10553 10559 10564 10568 10572 10575 10579 10585 10589 10593 10598 10601 10604 10607 10609 10609 10609 10609 10606 10603 10599 10596 10592 10585 10578 10571 10565 10561 10557 10554 10550
10464 10459 10454 10449 10446 10444 10444 10445 10448 10451 10456 10463 10470 10479 10488 10498 10507 10516 10523 10530 10537 10543 10549 10554 10560 10565 10570 10574 10578 10582 10585 10589 10592 10595 10599 10602 10605 10606 10606 10605 10603 10600 10597 10593 10589 10584 10577 10570 10565 10560 10558 10558 10556 10556
10456 10450 10444 10441 10439 10438 10439 10442 10446 10451 10457 10464 10472 10481 10491 10500 10508 10515 10522 10531 10538 10544 10548 10553 10559 10565 10570 10574 10578 10580 10583 10587 10591 10594 10597 10599 10601 10601 10602 10601 10598 10595 10592 10588 10583 10577 10570 10565 10561 10559 10559 10559 10559 10558
10449 10442 10437 10435 10433 10434 10436 10440 10444 10450 10457 10466 10476 10485 10493 10500 10508 10516 10525 10531 10537 10542 10546 10552 10558 10564 10569 10573 10575 10579 10583 10586 10589 10591 10593 10595 10596 10597 10597 10595 10594 10591 10588 10584 10579 10573 10567 10563 10560 10559 10559 10559 10560 10559
10442 10436 10433 10432 10431 10432 10435 10439 10444 10451 10459 10467 10476 10484 10491 10499 10509 10517 10525 10531 10537 10542 10547 10553 10559 10565 10569 10572 10575 10579 10582 10584 10586 10588 10590 10592 10592 10592 10592 10591 10590 10588 10585 10582 10578 10574 10568 10564 10562 10561 10560 10559 10559 10558
10437 10433 10432 10431 10432 10434 10437 10440 10446 10453 10460 10468 10477 10484 10493 10504 10512 10520 10526 10531 10538 10543 10547 10553 10559 10564 10567 10571 10576 10578 10580 10582 10584 10586 10587 10588 10588 10588 10588 10587 10586 10584 10582 10579 10576 10573 10570 10566 10564 10562 10560 10558 10555 10554
10436 10434 10433 10433 10434 10436 10439 10443 10450 10456 10464 10472 10480 10490 10500 10508 10514 10520 10526 10532 10538 10541 10547 10553 10558 10562 10566 10571 10574 10576 10578 10580 10582 10583 10584 10585 10585 10585 10585 10584 10582 10580 10579 10576 10574 10571 10568 10566 10563 10561 10557 10554 10550 10547
10437 10436 10436 10436 10437 10439 10441 10445 10451 10458 10467 10476 10484 10493 10501 10507 10515 10521 10527 10532 10536 10542 10547 10552 10557 10562 10566 10570 10572 10573 10575 10578 10580 10581 10581 10581 10581 10581 10581 10579 10578 10576 10575 10573 10570 10568 10565 10562 10559 10555 10551 10548 10543 10540
10438 10438 10438 10439 10440 10441 10444 10447 10453 10460 10467 10476 10485 10494 10501 10509 10516 10522 10527 10532 10537 10542 10547 10552 10557 10561 10565 10567 10569 10571 10574 10575 10577 10577 10577 10577 10577 10577 10575 10573 10572 10571 10570 10568 10565 10562 10558 10555 10552 10548 10543 10538 10533 10528